Location: Linz
(48.3300°N, 14.3000°E)
Time: 12:15:51
(UTC+01:00)

N. Korean satellite - Pass Details

Date: 12 November 2017
Orbit: 460 x 514 km, 97.2° (Epoch: 23 November)

Event Time Altitude Azimuth Distance (km) Brightness Sun altitude
Rises 17:43:33 0° 159° (SSE) 2,477 10.1 -12.7°
Reaches altitude 10° 17:45:34 10° 156° (SSE) 1,611 9.1 -13.0°
Maximum altitude 17:48:59 65° 75° (ENE) 518 6.4 -13.6°
Drops below altitude 10° 17:52:29 10° 353° (N) 1,643 9.2 -14.1°
Sets 17:54:34 0° 350° (N) 2,534 10.2 -14.5°
